User: anonymous   Login
Location: Alsip
(41.6689°N, 87.7387°W)
Time: 19:16:08
(UTC+00:00)
Language:

Cosmos 2016 Rocket - Orbit

View from above orbital plane
View from above orbital plane
View from above satellite
View from above satellite

Ground track
Ground track

The orbit data is extracted from the following two-line orbital elements,

1 19922U 89028B   20263.49231813 -.00000074 +00000-0 -90472-4 0  9993
2 19922 082.9548 263.7501 0037263 149.6494 210.6832 13.77222407580812
Epoch (UTC): 19 September 2020 11:48:56
Eccentricity: 0.0037263
inclination: 82.9548°
perigee height: 946 km
apogee height: 1001 km
right ascension of ascending node: 263.7501°
argument of perigee: 149.6494°
revolutions per day: 13.77222407
mean anomaly at epoch: 210.6832°
orbit number at epoch: 58081

The dashed part of the orbit path shows where the satellite is in the earth's shadow,  

DLR